Weather History for KSEZ - September, 2013

Change the Weather History Date:

Monday, September 30, 2013

  Actual Average Record
Temperature  
Mean Temperature 68 °F -  
Max Temperature 82 °F 85 °F 98 °F (2010)
Min Temperature 53 °F 53 °F 53 °F (2013)
Cooling Degree Days 2    
Growing Degree Days 18 (Base 50)    
Moisture  
Dew Point 32 °F    
Average Humidity 29    
Maximum Humidity 44    
Minimum Humidity 15    
Precipitation  
Precipitation 0.00 in - - ()
Sea Level Pressure  
Sea Level Pressure 30.11 in    
Wind  
Wind Speed 8 mph (ENE)    
Max Wind Speed 13 mph    
Max Gust Speed -    
Visibility 10 miles    
Events      
Averages and records for this station are not official NWS values.
T = Trace of Precipitation, MM = Missing Value Source: NWS Daily Summary

Daily Weather History Graph

Daily Weather History Graph

Search for Another Location

Airport or City:

Trip Planner

Search our weather history database for the weather conditions in past years. The results will help you decide how hot, cold, wet, or windy it might be!

Date:

Astronomy

Sep. 30, 2013 Rise Set
Actual Time 6:21 AM MST 6:12 PM MST
Civil Twilight 5:56 AM MST 6:37 PM MST
Nautical Twilight 5:26 AM MST 7:06 PM MST
Astronomical Twilight 4:57 AM MST 7:35 PM MST
Moon 2:10 AM MST (9/30) 3:37 PM MST (9/30)
Length of Visible Light 12h 41m
Length of Day
11h 50m
Waning Crescent, 18% of the Moon is Illuminated
Sep 30
Waning Crescent
Oct 4
New
Oct 11
First Quarter
Oct 18
Full
Oct 26
Last Quarter

Hourly Weather History & Observations

Time (MST) Temp. Dew Point Humidity Pressure Visibility Wind Dir Wind Speed Gust Speed Precip Events Conditions
12:15 AM 59.0 °F 33.8 °F 39% 30.16 in 10.0 mi NE 9.2 mph - N/A   Clear
12:35 AM 59.0 °F 33.8 °F 39% 30.16 in 10.0 mi NE 10.4 mph - N/A   Clear
12:55 AM 59.0 °F 33.8 °F 39% 30.15 in 10.0 mi NNE 8.1 mph - N/A   Clear
1:15 AM 59.0 °F 33.8 °F 39% 30.15 in 10.0 mi NNE 6.9 mph - N/A   Clear
1:35 AM 59.0 °F 33.8 °F 39% 30.15 in 10.0 mi NNE 9.2 mph - N/A   Clear
1:55 AM 59.0 °F 33.8 °F 39% 30.15 in 10.0 mi NE 10.4 mph - N/A   Clear
2:15 AM 57.2 °F 33.8 °F 41% 30.15 in 10.0 mi NE 10.4 mph - N/A   Clear
2:35 AM 55.4 °F 33.8 °F 44% 30.15 in 10.0 mi NNE 9.2 mph - N/A   Clear
2:55 AM 55.4 °F 32.0 °F 41% 30.14 in 10.0 mi NNE 10.4 mph - N/A   Clear
3:15 AM 57.2 °F 32.0 °F 38% 30.14 in 10.0 mi NE 10.4 mph - N/A   Clear
3:35 AM 55.4 °F 32.0 °F 41% 30.14 in 10.0 mi NE 10.4 mph - N/A   Clear
3:55 AM 57.2 °F 32.0 °F 38% 30.14 in 10.0 mi NE 11.5 mph - N/A   Clear
4:15 AM 55.4 °F 32.0 °F 41% 30.13 in 10.0 mi NE 10.4 mph - N/A   Clear
4:35 AM 55.4 °F 32.0 °F 41% 30.13 in 10.0 mi NE 12.7 mph - N/A   Clear
4:55 AM 55.4 °F 32.0 °F 41% 30.14 in 10.0 mi NE 11.5 mph - N/A   Clear
5:15 AM 55.4 °F 32.0 °F 41% 30.14 in 10.0 mi NE 11.5 mph - N/A   Clear
5:35 AM 55.4 °F 32.0 °F 41% 30.14 in 10.0 mi NE 11.5 mph - N/A   Clear
5:55 AM 55.4 °F 32.0 °F 41% 30.14 in 10.0 mi NE 11.5 mph - N/A   Clear
6:15 AM 55.4 °F 32.0 °F 41% 30.14 in 10.0 mi NE 11.5 mph - N/A   Clear
6:35 AM 53.6 °F 32.0 °F 44% 30.13 in 10.0 mi NNE 10.4 mph - N/A   Clear
6:55 AM 53.6 °F 32.0 °F 44% 30.14 in 10.0 mi NE 10.4 mph - N/A   Clear
7:15 AM 55.4 °F 32.0 °F 41% 30.15 in 10.0 mi NE 8.1 mph - N/A   Clear
7:35 AM 57.2 °F 32.0 °F 38% 30.15 in 10.0 mi NE 8.1 mph - N/A   Clear
7:55 AM 59.0 °F 32.0 °F 36% 30.15 in 10.0 mi NE 10.4 mph - N/A   Clear
8:15 AM 60.8 °F 32.0 °F 34% 30.16 in 10.0 mi NNE 6.9 mph - N/A   Clear
8:35 AM 62.6 °F 32.0 °F 32% 30.17 in 10.0 mi NNE 3.5 mph - N/A   Clear
8:55 AM 62.6 °F 32.0 °F 32% 30.17 in 10.0 mi NNE 5.8 mph - N/A   Clear
9:15 AM 64.4 °F 32.0 °F 30% 30.17 in 10.0 mi Calm Calm - N/A   Clear
9:35 AM 68.0 °F 33.8 °F 28% 30.17 in 10.0 mi Calm Calm - N/A   Clear
9:55 AM 69.8 °F 33.8 °F 27% 30.17 in 10.0 mi SE 4.6 mph - N/A   Clear
10:15 AM 69.8 °F 33.8 °F 27% 30.17 in 10.0 mi South 3.5 mph - N/A   Clear
10:35 AM 71.6 °F 33.8 °F 25% 30.16 in 10.0 mi SSE 6.9 mph - N/A   Clear
10:55 AM 75.2 °F 33.8 °F 22% 30.16 in 10.0 mi South 6.9 mph - N/A   Clear
11:15 AM 73.4 °F 33.8 °F 23% 30.16 in 10.0 mi South 6.9 mph - N/A   Clear
11:35 AM 75.2 °F 30.2 °F 19% 30.15 in 10.0 mi South 3.5 mph - N/A   Clear
11:55 AM 77.0 °F 32.0 °F 19% 30.14 in 10.0 mi SE 4.6 mph - N/A   Clear
12:15 PM 77.0 °F 32.0 °F 19% 30.13 in 10.0 mi South 4.6 mph - N/A   Clear
12:35 PM 77.0 °F 30.2 °F 18% 30.12 in 10.0 mi West 4.6 mph - N/A   Clear
12:55 PM 77.0 °F 28.4 °F 17% 30.11 in 10.0 mi West 3.5 mph - N/A   Clear
1:15 PM 77.0 °F 30.2 °F 18% 30.10 in 10.0 mi South 4.6 mph - N/A   Clear
1:35 PM 78.8 °F 28.4 °F 16% 30.09 in 10.0 mi WSW 5.8 mph - N/A   Clear
1:55 PM 78.8 °F 28.4 °F 16% 30.09 in 10.0 mi West 3.5 mph - N/A   Clear
2:15 PM 80.6 °F 28.4 °F 15% 30.08 in 10.0 mi WNW 3.5 mph - N/A   Clear
2:35 PM 80.6 °F 28.4 °F 15% 30.08 in 10.0 mi Calm Calm - N/A   Clear
2:55 PM 80.6 °F 28.4 °F 15% 30.07 in 10.0 mi SSW 4.6 mph - N/A   Clear
3:15 PM 82.4 °F 30.2 °F 15% 30.06 in 10.0 mi South 4.6 mph - N/A   Clear
3:35 PM 80.6 °F 28.4 °F 15% 30.06 in 10.0 mi South 5.8 mph - N/A   Clear
3:55 PM 80.6 °F 28.4 °F 15% 30.06 in 10.0 mi SSW 4.6 mph - N/A   Clear
4:15 PM 80.6 °F 28.4 °F 15% 30.06 in 10.0 mi SSW 6.9 mph - N/A   Clear
4:35 PM 78.8 °F 28.4 °F 16% 30.05 in 10.0 mi SW 5.8 mph - N/A   Clear
4:55 PM 78.8 °F 30.2 °F 17% 30.05 in 10.0 mi SSW 6.9 mph - N/A   Clear
5:15 PM 78.8 °F 32.0 °F 18% 30.05 in 10.0 mi SSW 4.6 mph - N/A   Clear
5:35 PM 77.0 °F 32.0 °F 19% 30.04 in 10.0 mi South 4.6 mph - N/A   Clear
5:55 PM 73.4 °F 32.0 °F 22% 30.04 in 10.0 mi South 3.5 mph - N/A   Clear
6:15 PM 71.6 °F 32.0 °F 23% 30.04 in 10.0 mi Calm Calm - N/A   Clear
6:35 PM 71.6 °F 32.0 °F 23% 30.05 in 10.0 mi SW 5.8 mph - N/A   Clear
6:55 PM 71.6 °F 32.0 °F 23% 30.05 in 10.0 mi WSW 5.8 mph - N/A   Clear
7:15 PM 69.8 °F 32.0 °F 25% 30.06 in 10.0 mi SW 4.6 mph - N/A   Clear
7:35 PM 69.8 °F 32.0 °F 25% 30.06 in 10.0 mi Calm Calm - N/A   Clear
7:55 PM 69.8 °F 30.2 °F 23% 30.06 in 10.0 mi SE 3.5 mph - N/A   Clear
8:15 PM 68.0 °F 30.2 °F 24% 30.06 in 10.0 mi SE 4.6 mph - N/A   Clear
8:35 PM 66.2 °F 32.0 °F 28% 30.07 in 10.0 mi SE 3.5 mph - N/A   Clear
8:55 PM 68.0 °F 30.2 °F 24% 30.07 in 10.0 mi South 3.5 mph - N/A   Clear
9:15 PM 66.2 °F 30.2 °F 26% 30.08 in 10.0 mi Calm Calm - N/A   Clear
9:35 PM 64.4 °F 32.0 °F 30% 30.08 in 10.0 mi NNE 6.9 mph - N/A   Clear
9:55 PM 62.6 °F 32.0 °F 32% 30.08 in 10.0 mi NE 6.9 mph - N/A   Clear
10:15 PM 62.6 °F 32.0 °F 32% 30.08 in 10.0 mi NNE 9.2 mph - N/A   Clear
10:35 PM 62.6 °F 32.0 °F 32% 30.08 in 10.0 mi NE 9.2 mph - N/A   Clear
10:55 PM 60.8 °F 32.0 °F 34% 30.08 in 10.0 mi NNE 10.4 mph - N/A   Clear
11:15 PM 60.8 °F 32.0 °F 34% 30.09 in 10.0 mi NNE 8.1 mph - N/A   Clear
11:35 PM 60.8 °F 32.0 °F 34% 30.08 in 10.0 mi NNE 10.4 mph - N/A   Clear
11:55 PM 60.8 °F 32.0 °F 34% 30.08 in 10.0 mi NNE 10.4 mph - N/A   Clear